Weather History for KBKW - January, 2012

Change the Weather History Date:

Tuesday, January 17, 2012

  Actual Average Record
Temperature  
Mean Temperature 48 °F 31 °F  
Max Temperature 57 °F 39 °F 69 °F (1943)
Min Temperature 38 °F 23 °F -20 °F (1982)
Degree Days  
Heating Degree Days 17 34  
Month to date heating degree days 524 578  
Since 1 July heating degree days 2270 2671  
Cooling Degree Days 0 0  
Month to date cooling degree days 0 0  
Year to date cooling degree days 0 0  
Moisture  
Dew Point 41 °F    
Average Humidity 63    
Maximum Humidity 93    
Minimum Humidity 33    
Precipitation  
Precipitation 0.49 in 0.09 in 1.10 in (1947)
Month to date precipitation 1.51 1.56  
Year to date precipitation 1.51 1.56  
Snow  
Snow 0.00 in - - ()
Month to date snowfall 11.0  
Since 1 September snowfall 18.8  
Snow Depth 0.00 in    
Sea Level Pressure  
Sea Level Pressure 29.89 in    
Wind  
Wind Speed 17 mph (WSW)    
Max Wind Speed 29 mph    
Max Gust Speed 41 mph    
Visibility 8 miles    
Events Rain    
T = Trace of Precipitation, MM = Missing Value Source: NWS Daily Summary

Daily Weather History Graph

Daily Weather History Graph

Search for Another Location

Airport or City:

Trip Planner

Search our weather history database for the weather conditions in past years. The results will help you decide how hot, cold, wet, or windy it might be!

Date:

Astronomy

Jan. 17, 2012 Rise Set
Actual Time 7:38 AM EST 5:31 PM EST
Civil Twilight 7:09 AM EST 5:59 PM EST
Nautical Twilight 6:37 AM EST 6:31 PM EST
Astronomical Twilight 6:05 AM EST 7:03 PM EST
Moon 1:56 AM EST (1/17) 12:22 PM EST (1/17)
Length of Visible Light 10h 50m
Length of Day
9h 52m
Waning Crescent, 35% of the Moon is Illuminated
Jan 17
Waning Crescent
Jan 23
New
Jan 30
First Quarter
Feb 7
Full
Feb 14
Last Quarter

Hourly Weather History & Observations

Time (EST) Temp. Windchill Dew Point Humidity Pressure Visibility Wind Dir Wind Speed Gust Speed Precip Events Conditions
12:51 AM 50.0 °F - 24.1 °F 36% 30.09 in 10.0 mi SW 17.3 mph 26.5 mph N/A   Overcast
1:51 AM 48.9 °F - 28.9 °F 46% 30.06 in 10.0 mi SW 18.4 mph 28.8 mph 0.00 in Rain Light Rain
2:51 AM 50.0 °F - 30.9 °F 48% 30.04 in 10.0 mi SW 17.3 mph 26.5 mph 0.00 in   Mostly Cloudy
3:51 AM 51.1 °F - 32.0 °F 48% 30.03 in 10.0 mi SW 15.0 mph 29.9 mph N/A   Overcast
4:51 AM 51.1 °F - 33.1 °F 50% 30.01 in 10.0 mi SW 13.8 mph 26.5 mph N/A   Overcast
5:51 AM 51.1 °F - 35.1 °F 54% 30.00 in 10.0 mi SW 17.3 mph 29.9 mph N/A   Overcast
6:51 AM 52.0 °F - 37.0 °F 57% 30.00 in 10.0 mi SW 21.9 mph 32.2 mph N/A   Overcast
7:51 AM 51.8 °F - 35.6 °F 54% 29.94 in 10.0 mi SW 19.6 mph 28.8 mph N/A   Partly Cloudy
8:51 AM 52.0 °F - 37.0 °F 57% 29.95 in 10.0 mi SW 19.6 mph 29.9 mph N/A   Overcast
9:51 AM 50.0 °F - 39.9 °F 68% 29.96 in 4.0 mi SW 20.7 mph 33.4 mph 0.01 in Rain Rain
10:51 AM 50.0 °F - 42.8 °F 76% 29.94 in 10.0 mi SW 16.1 mph 25.3 mph N/A Rain Light Rain
11:51 AM 52.0 °F - 43.0 °F 71% 29.88 in 10.0 mi SW 24.2 mph 33.4 mph 0.00 in   Overcast
12:51 PM 54.0 °F - 45.0 °F 72% 29.83 in 10.0 mi SW 23.0 mph 32.2 mph N/A   Overcast
1:51 PM 54.0 °F - 46.0 °F 75% 29.80 in 10.0 mi SW 15.0 mph 32.2 mph N/A   Overcast
2:51 PM 55.9 °F - 46.9 °F 72% 29.78 in 10.0 mi SW 20.7 mph 32.2 mph N/A   Overcast
3:51 PM 57.0 °F - 48.0 °F 72% 29.76 in 10.0 mi WSW 21.9 mph 33.4 mph 0.00 in Rain Light Rain
4:11 PM 53.6 °F - 48.2 °F 82% 29.83 in 2.5 mi NW 13.8 mph 32.2 mph 0.01 in Rain Rain
4:20 PM 51.8 °F - 46.4 °F 82% 29.84 in 1.2 mi WNW 12.7 mph 27.6 mph 0.15 in Rain Heavy Rain
4:42 PM 50.0 °F - 48.2 °F 94% 29.85 in 2.5 mi West 9.2 mph 16.1 mph 0.30 in Rain Rain
4:44 PM 50.0 °F - 48.2 °F 94% 29.84 in 3.0 mi West 8.1 mph 16.1 mph 0.31 in Rain Rain
4:51 PM 50.0 °F - 48.0 °F 93% 29.81 in 3.0 mi WSW 3.5 mph - 0.32 in Rain Rain
5:51 PM 52.0 °F - 48.9 °F 89% 29.79 in 4.0 mi SW 9.2 mph - 0.02 in Rain Rain
6:00 PM 51.8 °F - 50.0 °F 94% 29.81 in 4.0 mi SW 10.4 mph - 0.04 in Rain Rain
6:12 PM 51.8 °F - 50.0 °F 94% 29.81 in 7.0 mi West 8.1 mph - 0.06 in Rain Rain
6:21 PM 51.8 °F - 50.0 °F 94% 29.81 in 3.0 mi West 8.1 mph - 0.08 in Rain Heavy Rain
6:51 PM 52.0 °F - - N/A% 29.82 in 10.0 mi West 12.7 mph 18.4 mph 0.11 in Rain Light Rain
7:09 PM 51.8 °F - - N/A% 29.84 in 10.0 mi WSW 12.7 mph 17.3 mph 0.00 in   Overcast
7:51 PM 52.0 °F - 46.0 °F 80% 29.83 in 10.0 mi West 16.1 mph 25.3 mph 0.00 in   Mostly Cloudy
8:51 PM 50.0 °F - 42.8 °F 76% 29.84 in 10.0 mi WNW 15.0 mph 20.7 mph N/A   Partly Cloudy
9:51 PM 48.0 °F - 39.0 °F 71% 29.86 in 10.0 mi WNW 18.4 mph 26.5 mph N/A   Clear
10:51 PM 43.0 °F 36.0 °F 34.0 °F 71% 29.90 in 10.0 mi NNW 13.8 mph 20.7 mph N/A   Mostly Cloudy
11:51 PM 39.0 °F 31.0 °F 30.0 °F 70% 29.96 in 10.0 mi WNW 13.8 mph 21.9 mph N/A   Overcast